GSAT0215 (GALILEO 19) (43055 NORAD) Tracking and Keplerian Element Data

This shows tracking and keplerian element data for the satellite.

Feedback or suggestion? Click here.




ElementValue
Catalog43055
NameGSAT0215 (GALILEO 19)
Epoch Orbit2339
Epoch Day258.3153501
Epoch Year2021
RAAN269.2967
Inclination55.9318
Eccentricity0.0004391
Argument of Perigee270.0588
Mean Anonmoly89.9243
Mean Motion1.70473963
Decay Rate3.5E-07
L11 43055U 17079A 21258.31535010 .00000035 00000-0 00000+0 0 9994
L22 43055 55.9318 269.2967 0004391 270.0588 89.9243 1.70473963 23390

Live tracking and technical data element details for GSAT0215 (GALILEO 19) (NORAD 43055). GSAT0215 (GALILEO 19) can be tracked NOW for your location showing map with azimuth and elevation plus other details from your city location.

Track the satellite on the map from your city or location and see movement details for azimuth, elevation, latitude, longitude, range, height, and movement on the map or in text.







IsCatalogInMostPopularTable: catalog: 43055, numindb: 675
Update: records affected: 1



GetName: 43055 GSAT0215 (GALILEO 19)

Hit Count: updated at: Sat, 18 Sep 2021 10:17:09 GMT